Location: *
(48.8780°N, 19.2358°E)
Time: 22:38:27
(UTC+00:00)

Cosmos 2278 Rocket - Pass Details

Date: 18 October 2019
Orbit: 840 x 846 km, 71.0° (Epoch: 22 November)

Event Time Altitude Azimuth Distance (km) Brightness Sun altitude
Rises 17:38:47 0° 205° (SSW) 3,391 5.6 -18.9°
Reaches altitude 10° 17:41:13 10° 204° (SSW) 2,461 4.8 -19.3°
Maximum altitude 17:46:53 86° 118° (ESE) 854 2.1 -20.2°
Drops below altitude 10° 17:52:36 10° 29° (NNE) 2,480 4.4 -21.1°
Sets 17:55:03 0° 29° (NNE) 3,419 5.2 -21.5°
